K9JM Weather Reports


Display with metric or nautical units.
time (UTC)temp
F
wind
direction
speed
MPH
gust
MPH
rain 1hr
in
rain 24hr
in
rain mn
in
humidity
%
barometer
mb
20260502210017 69 0.0 0.0 0.00 0.00 0.00 59 1012.5
20260502204517 68 0.0 0.0 0.00 0.00 0.00 62 1012.6
20260502203017 68 0.0 0.0 0.00 0.00 0.00 57 1012.6
20260502201517 68 0.0 0.0 0.00 0.00 0.00 62 1012.6
20260502200037 67 0.0 0.0 0.00 0.00 0.00 62 1012.6
20260502194517 68 0.0 0.0 0.00 0.00 0.00 59 1012.8
20260502193037 67 0.0 0.0 0.00 0.00 0.00 62 1012.8
20260502191537 66 0.0 0.0 0.00 0.00 0.00 66 1012.8
20260502190017 65 0.0 0.0 0.00 0.00 0.00 67 1012.5
20260502184517 65 0.0 0.0 0.00 0.00 0.00 63 1012.6
20260502183016 66 0.0 0.0 0.00 0.00 0.00 62 1012.8
20260502181516 66 0.0 0.0 0.00 0.00 0.00 66 1012.7
20260502163017 70 0.0 0.0 0.00 0.00 0.00 58 1012.6
20260502161516 69 0.0 0.0 0.00 0.00 0.00 58 1012.7
20260502151516 67 0.0 0.0 0.00 0.00 0.00 60 1012.6
20260502123036 60 0.0 0.0 0.00 0.00 0.00 64 1011.4
20260502121516 60 0.0 0.0 0.00 0.00 0.00 65 1011.4
20260502113036 60 0.0 0.0 0.00 0.00 0.00 65 1011.6
20260502111516 60 0.0 0.0 0.00 0.00 0.00 65 1011.8
20260502110016 60 0.0 0.0 0.00 0.00 0.00 66 1011.8
20260502104516 60 0.0 0.0 0.00 0.00 0.00 67 1012.0
20260502103016 60 0.0 0.0 0.00 0.00 0.00 68 1012.0
20260502101516 60 0.0 0.0 0.00 0.00 0.00 69 1012.0
20260502091516 60 0.0 0.0 0.00 0.00 0.00 70 1012.5
20260502090156 60 0.0 0.0 0.00 0.00 0.00 70 1012.6
20260502071516 62 0.0 0.0 0.00 0.00 0.00 70 1013.5
20260502070016 62 0.0 0.0 0.00 0.00 0.00 70 1013.5
20260502064515 62 0.0 0.0 0.00 0.00 0.00 69 1013.4
20260502063035 62 0.0 0.0 0.00 0.00 0.00 69 1013.3
20260502061517 63 0.0 0.0 0.00 0.00 0.00 69 1013.5
20260502060017 63 0.0 0.0 0.00 0.00 0.00 69 1013.5
20260502054517 64 0.0 0.0 0.00 0.00 0.00 68 1013.9
20260502053017 64 0.0 0.0 0.00 0.00 0.00 68 1014.0
20260502051517 65 0.0 0.0 0.00 0.00 0.00 67 1014.0
20260502050037 65 0.0 0.0 0.00 0.00 0.00 67 1013.8
20260502044517 65 0.0 0.0 0.00 0.00 0.00 67 1013.8
20260502043017 65 0.0 0.0 0.00 0.00 0.00 66 1013.6
20260502041517 66 0.0 0.0 0.00 0.00 0.00 65 1013.5
20260502040017 66 0.0 0.0 0.00 0.00 0.00 65 1013.0
20260502034517 67 0.0 0.0 0.00 0.00 0.00 65 1013.0
20260502033017 67 0.0 0.0 0.00 0.00 0.00 64 1012.6
20260502031517 67 0.0 0.0 0.00 0.00 0.00 63 1012.4
20260502030015 68 0.0 0.0 0.00 0.00 0.00 61 1012.1
20260502024517 68 0.0 0.0 0.00 0.00 0.00 60 1012.1
20260502023018 69 0.0 0.0 0.00 0.00 0.00 61 1012.0
20260502021517 70 0.0 0.0 0.00 0.00 0.00 59 1012.0
20260502020017 71 0.0 0.0 0.00 0.00 0.00 56 1011.9
20260502014557 72 0.0 0.0 0.00 0.00 0.00 53 1012.2
20260502013017 72 0.0 0.0 0.00 0.00 0.00 52 1012.3
20260502011537 73 0.0 0.0 0.00 0.00 0.00 52 1012.4
20260502010017 73 0.0 0.0 0.00 0.00 0.00 52 1012.4
20260502004517 73 0.0 0.0 0.00 0.00 0.00 51 1012.2
20260502003017 73 0.0 0.0 0.00 0.00 0.00 48 1012.2
20260502001537 73 0.0 0.0 0.00 0.00 0.00 49 1012.4
20260502000017 73 0.0 0.0 0.00 0.00 0.00 47 1012.5
20260501234517 73 0.0 0.0 0.00 0.00 0.00 50 1012.6
20260501233017 74 0.0 0.0 0.00 0.00 0.00 44 1012.6
20260501231557 74 0.0 0.0 0.00 0.00 0.00 43 1013.0
20260501230017 74 0.0 0.0 0.00 0.00 0.00 48 1013.1
20260501224516 74 0.0 0.0 0.00 0.00 0.00 47 1013.2
20260501223017 75 0.0 0.0 0.00 0.00 0.00 44 1013.6
20260501221537 74 0.0 0.0 0.00 0.00 0.00 50 1013.7
20260501220017 74 0.0 0.0 0.00 0.00 0.00 50 1014.0
20260501214517 74 0.0 0.0 0.00 0.00 0.00 47 1014.1
20260501213016 74 0.0 0.0 0.00 0.00 0.00 48 1014.1
20260501211537 75 0.0 0.0 0.00 0.00 0.00 52 1014.3